Regional Weather Roundup
Issued by NWS

Home | Current Version | Previous Version | Text Only | Print | Product List | Glossary Off
Versions: 1 2 3 4 5 6 7 8 9 10 11 12 13 14 15 16 17 18 19 20 21 22 23 24 25 26 27 28 29 30 31 32 33 34 35 36 37 38 39 40 41 42 43 44 45 46 47 48 49 50

000
ASUS43 KDTX 201301
RWRMI
MICHIGAN HOURLY REGIONAL WEATHER ROUNDUP
NATIONAL WEATHER SERVICE DETROIT/PONTIAC MI
800 AM EST MON NOV 20 2017

NOTE: "FAIR" INDICATES FEW OR NO CLOUDS BELOW 12,000 FEET WITH NO
SIGNIFICANT WEATHER AND/OR OBSTRUCTION TO VISIBILITY.

MIZ047>049-052>055-059>063-066>070-074>076-081>083-201400-
SOUTHEAST LOWER MICHIGAN

CITY           SKY/WX    TMP DP  RH WIND       PRES   REMARKS
ADRIAN         CLEAR     26  21  81 SW9       30.07R WCI  17
ALMA           CLOUDY    32  29  91 SW8       29.94S WCI  24
ANN ARBOR      CLEAR     27  22  81 S9        30.04R WCI  18
BAD AXE        PTCLDY    31  26  81 SW8       29.94S WCI  23
CARO           CLOUDY    32  28  83 SW9       29.94F WCI  24
DETROIT CITY   CLOUDY   N/A N/A N/A SW12      30.04S
DETROIT        MOCLDY    29  23  78 SW12      30.05R WCI  19
FLINT          CLOUDY    30  24  78 SW13      29.98F WCI  20
GROSSE ILE     CLEAR     31  23  73 SW10      30.06R WCI  22
HILLSDALE      CLEAR     28  21  74 S8        30.03S WCI  20
HOWELL         CLOUDY    29  24  81 SW9       30.00R WCI  21

CITY           SKY/WX    TMP DP  RH WIND       PRES   REMARKS
JACKSON        CLEAR     30  21  69 S13       30.02R WCI  20
LAMBERTVILLE   CLEAR     32  23  69 SW7       30.08S WCI  25
LANSING        CLEAR     29  23  78 S10       29.99R WCI  20
LAPEER         FAIR      30  26  84 SW7       29.98S WCI  24
MASON          CLEAR     31  23  73 SW3       30.01R
MONROE         CLEAR     31  23  71 SW8       30.06S WCI  24
MT. CLEMENS    MOCLDY    31  26  82 SW13      30.00F WCI  21
PONTIAC        MOCLDY    30  25  81 SW10      29.99S WCI  21
PORT HOPE        N/A     32  25  75 VRB5      29.93R WCI  27
PORT HURON     CLOUDY    30  23  74 SW9       30.01R WCI  22
TRI CITIES     PTCLDY    32  28  85 SW8       29.94F WCI  25
MIDLAND        FAIR      32  28  84 S6        29.92F WCI  26
TROY           CLOUDY    32  26  78 SW12      30.04F WCI  23
SAGINAW HB     PTCLDY    32  28  86 SW10      29.94F WCI  24
$$
MIZ043>046-050>051-056>058-064>065-071>073-077>080-201400-
SOUTHWEST LOWER MICHIGAN

CITY           SKY/WX    TMP DP  RH WIND       PRES   REMARKS
BATTLE CREEK   CLEAR     28  22  78 S12       30.00F WCI  18
BENTON HARBOR  CLEAR     32  22  66 S9        29.98F WCI  24
BIG RAPIDS     CLEAR     29  27  93 CALM      29.89S
COLDWATER      CLEAR     29  22  74 S6        30.02F WCI  23
FREMONT        FAIR      32  31  97 SE7       29.89F WCI  26
HOLLAND        CLEAR     33  27  78 S14       29.94F WCI  23
GRAND RAPIDS   PTCLDY    30  26  85 S12       29.94F WCI  20
IONIA          FAIR      31  25  79 S12       29.95S WCI  21
KALAMAZOO      CLEAR     29  21  72 S13       30.00F WCI  19
LUDINGTON      CLOUDY    38  32  79 SW8       29.85F WCI  32
MARSHALL       CLEAR     28  21  75 SW5       30.01S WCI  23
MOUNT PLEASANT CLOUDY    32  28  85 S5        29.91F WCI  27
MUSKEGON       PTCLDY    42  34  73 SW14      29.90F
SOUTH HAVEN    CLEAR     31  23  72 S8        29.97F WCI  24
$$
MIZ016>042-201400-
NORTHERN LOWER MICHIGAN

CITY           SKY/WX    TMP DP  RH WIND       PRES   REMARKS
ALPENA         CLOUDY    28  24  85 S5        29.89R WCI  23
BEAVER ISLAND  CLEAR     23  20  88 E3        29.82F
BELLAIRE       CLOUDY    32  29  88 S3        29.85F
CADILLAC       PTCLDY    27  26  96 SW3       29.84S
CHARLEVOIX     CLOUDY    32  27  83 S6        29.86F WCI  26
FRANKFORT      CLOUDY    39  31  72 CALM      29.84S
GAYLORD        CLOUDY    27  23  85 SW8       29.82F WCI  19
GRAYLING       CLOUDY    29  24  82 SW5       29.86S WCI  24
HARBOR SPRINGS CLOUDY    32  24  74 CALM      29.84S
MANISTEE       CLOUDY    27  26  96 E5        29.86S WCI  22
OSCODA         PTCLDY    24  20  83 S3        29.91S
PELLSTON       CLOUDY    17  15  92 CALM      29.85S
ROGERS CITY    CLOUDY    30  24  78 S6        29.87S WCI  24
TRAVERSE CITY  CLOUDY    32  26  78 VRB5      29.84F WCI  27
$$
MIZ007>008-015-201400-
EASTERN UPPER MICHIGAN

CITY           SKY/WX    TMP DP  RH WIND       PRES   REMARKS
KINROSS        MOCLDY    25  21  85 S3        29.82F
MACKINAC ISLAN CLEAR     31  23  73 NW3       29.83S
NEWBERRY       CLEAR     16  15  97 SW5       29.80F WCI   9
S. S. MARIE    CLOUDY    27  21  78 S5        29.82S WCI  22
MUNISING         N/A     21  16  81 S7        29.79F WCI  12
$$
MIZ004>006-011>014-085-201400-
CENTRAL UPPER MICHIGAN

CITY           SKY/WX    TMP DP  RH WIND       PRES   REMARKS
MANISTIQUE     CLOUDY    17  12  82 CALM      29.81F
ESCANABA       CLOUDY    21  19  92 CALM      29.80F
MENOMINEE      CLOUDY    27  22  81 CALM      29.81F
SAWYER-GWINN   CLEAR     18  16  93 CALM      29.75F
$$
MIZ001>003-009>011-084-201400-
WESTERN UPPER MICHIGAN

CITY           SKY/WX    TMP DP  RH WIND       PRES   REMARKS
IRON MOUNTAIN  CLOUDY    21  15  78 SE3       29.74F
HOUGHTON       PTCLDY    19  15  84 S5        29.70F WCI  12
COPPER HARBOR    N/A     21  17  84 SW3       29.74F
IRONWOOD       CLOUDY   N/A N/A N/A CALM      29.68F
$$

ABBREVIATIONS USED IN REMARKS
   TC - TEMPERATURE IN CELSIUS
  WCI - WIND CHILL INDEX
   HX - HEAT INDEX
  VSB - VISIBILITY




USA.gov is the U.S. government's official web portal to all federal, state and local government web resources and services.